Powrót do katalogu

STARLINK-3771

AktywnyŁącznośćVLEO
NORAD 52293·PAYLOAD·🇺🇸 United States

Wystrzelony Apr 21, 2022 z Cape Canaveral Space Force Station

Loading…

Następne Przeloty (najbliższe 24 godziny)

TLE

ŚwieżeSource: CelesTrak SupGP

Epoka: Sep 15, 2026, 02:53 UTC

1 52293C 22041AJ  26258.12062500  .00037135  00000+0  10973-2 0  2587
2 52293  53.1582 316.5381 0001214  94.6826 330.8926 15.34369602    18

Śledź STARLINK-3771 w czasie rzeczywistym z AllMySat

Download on the App Store